Regional Weather Roundup
Issued by NWS San Diego, CA

Home | Current Version | Previous Version | Text Only | Print | Product List | Glossary On
Versions: 1 2 3 4 5 6 7 8 9 10 11 12 13 14 15 16 17 18 19 20 21 22 23 24 25 26 27 28 29 30 31 32 33 34 35 36 37 38 39 40 41 42 43 44 45 46 47 48 49 50
000
ASUS46 KSGX 210211
RWRSGX

SAN DIEGO HOURLY WEATHER ROUNDUP
NATIONAL WEATHER SERVICE SAN DIEGO CA
600 PM PST MON FEB 20 2017

NOTE: "FAIR" INDICATES FEW OR NO CLOUDS BELOW 12,000 FEET WITH NO
SIGNIFICANT WEATHER AND/OR OBSTRUCTIONS TO VISIBILITY.

CAZ042-043-060-061-PZZ750-775-210300-

GREATER SAN DIEGO AREA

CITY           SKY/WX    TMP DP  RH WIND       PRES   REMARKS
SAN DIEGO AP   PTCLDY    62  51  67 NW9       30.27R
NATIONAL CITY    N/A     63  55  76 NW3       30.26R
CHULA VISTA      N/A     62  55  78 W6        30.18R
IMPERIAL BEACH CLEAR    N/A N/A N/A NW9       30.27R
BROWN FIELD    CLEAR     58  54  86 VRB5      30.25R
MIRAMAR MCAS   PTCLDY    62  53  72 NW10      30.26R
MONTGOMERY FLD CLEAR     60  51  72 NW10      30.26R

$$

NORTH SAN DIEGO COUNTY

CITY           SKY/WX    TMP DP  RH WIND       PRES   REMARKS
CAMP PENDLETON CLEAR     58  53  84 S5        30.27R
OCEANSIDE AP   CLEAR     59  54  83 NW5       30.26R
OCEANSIDE HBR    N/A     59  55  87 NE5       30.30R
VISTA            N/A     59  53  81 CALM      30.26R
CARLSBAD       CLEAR     59  53  80 CALM      30.26R
LA JOLLA SCRIP   N/A     59  55  87 W5        30.27R
FALLBROOK        N/A     59  56  89 CALM      30.26R
ESCONDIDO        N/A     60  53  76 W8        30.28R
SAN MARCOS       N/A     60  52  76 CALM      30.29R
POWAY            N/A     61  53  75 N1        30.28R

$$

EAST SAN DIEGO COUNTY

CITY           SKY/WX    TMP DP  RH WIND       PRES   REMARKS
RAMONA         CLEAR     57  54  89 NW9       30.26R
SANTEE LAKES     N/A     61  54  77 W7        30.24R
LA MESA          N/A     60  53  77 NW3       30.19R
JAMUL            N/A     60  53  78 CALM      30.27R
CAMPO            N/A     57  53  86 SW3       30.23R

$$

ORANGE COUNTY AND THE LOS ANGELES BASIN

CITY           SKY/WX    TMP DP  RH WIND       PRES   REMARKS
JOHN WAYNE AP  CLOUDY    60  53  77 SW7       30.28R
LAGUNA BEACH     N/A    N/A N/A N/A CALM      30.24R
LAKE FOREST FR   N/A     58  50  77 CALM      30.19R
HUNTINGTON BCH   N/A     59  55  85 CALM      30.30R
LOS ALAMITOS   CLOUDY    58  54  87 S3        30.28R
FULLERTON      CLOUDY    60  53  77 SW5       30.27R
LONG BEACH       N/A    N/A N/A N/A MISG      30.28R
L.A. AP        CLOUDY    58  56  93 CALM      30.28R
L.A. DOWNTOWN  CLOUDY    59  56  89 CALM      30.28R

$$

THE INLAND EMPIRE

CITY           SKY/WX    TMP DP  RH WIND       PRES   REMARKS
CORONA         CLOUDY    60  53  77 W8        30.28R
CHINO          CLOUDY    61  53  75 SW12      30.28R
ONTARIO        CLOUDY    60  52  74 W8        30.27R
SAN BERNARDINO CLOUDY    63  52  67 SW7       30.27R
RIVERSIDE AP   CLOUDY    61  54  77 W7        30.27R
MORENO VALLEY    N/A     59  56  89 NW5       28.37R
MARCH ARB      CLOUDY    59  58  99 NW9       30.27R
HORSETHIEF CYN   N/A     68  59  74 CALM      30.25R
PERRIS           N/A     60  55  83 NW2       30.28R
HEMET EAST       N/A     59  49  69 CALM      30.34R
FRENCH VALLEY  MOCLDY    61  52  72 SW3       30.27R
TEMECULA         N/A     61  56  83 W3        30.30R

$$

SAN BERNARDINO AND RIVERSIDE COUNTY MOUNTAINS

CITY           SKY/WX    TMP DP  RH WIND       PRES   REMARKS
BIG BEAR AP    CLOUDY    43  23  45 W13       30.32R
PINE COVE        N/A     46   9  22 NW3       30.32R

$$

SOUTHERN DESERT INCLUDING THE COACHELLA VALLEY

CITY           SKY/WX    TMP DP  RH WIND       PRES   REMARKS
PALM SPRINGS   PTCLDY    66  53  63 VRB5      30.24R
PALM DESERT      N/A     66  51  58 CALM        N/A
THERMAL        CLEAR     64  53  67 CALM      30.20R
BLYTHE         CLEAR     67  55  65 S6        30.21R
IMPERIAL AP    CLEAR     70  55  59 E7        30.19R
EL CENTRO NAS  CLEAR     68  53  58 E7        30.21R
YUMA AZ        CLEAR     67  54  63 S6        30.22R
MEXICALI       CLEAR     68  55  64 SE6       30.21R

$$

UPPER DESERT

CITY           SKY/WX    TMP DP  RH WIND       PRES   REMARKS
VICTORVILLE AP CLOUDY    57  46  67 SW9       30.24R
HESPERIA         N/A     54  48  80 NW5       30.36R
PALMDALE       CLEAR     55  48  77 W18       30.23R
LANCASTER      CLOUDY    53  49  86 SW14      30.25R
EDWARDS AFB    CLOUDY    55  49  81 SW20G26   30.20R
DAGGETT        CLOUDY    67  42  40 W12       30.19R
29 PALMS N     PTCLDY    62  49  62 S6        30.27R
NEEDLES        MOCLDY    66  52  60 S6        30.22R

$$

REGIONAL REPORTS

CITY           SKY/WX    TMP DP  RH WIND       PRES   REMARKS
SANTA BARBARA  CLOUDY    57  57 100 E9        30.25R
SANDBERG       FOG       46  45  96 S18G25    30.24F VSB<1/4
LAS VEGAS NV   MOCLDY    63  45  51 S8        30.15R
PHOENIX AZ     PTCLDY    65  47  52 SW6       30.22R
TIJUANA        CLEAR     59  50  72 W6        30.27R
ENSENADA NW      N/A     61  32  33 E10       30.22R

$$

OFFSHORE ISLANDS

CITY           SKY/WX    TMP DP  RH WIND       PRES   REMARKS
CATALINA ARPT  CLOUDY    54  54 100 SW5       30.28R FOG
SAN NICOLAS IS FOG      N/A N/A N/A S6        30.26R VSB 1/4

$$

MARINE AND OFFSHORE BUOY REPORTS

STATION/POSITION SKY/WX   TEMP    WIND        PRES    VSBY  SWELL
                          AIR SEA DIR/SP/G                  HT/PER/DIR
                          (F)     (DEG/KT/KT) (MB)    (MI)  (FT/S/D)
TANNER BANKS               60 60  160/  4/  4 1024.3R        10/270/16
S CLEMENTE BASIN           59 60  290/  6/  8 1024.9R         7/290/16
SAN NICOLAS IS.               57                N/A           8/300/15
SO. S. ROSA ISLA           57 56  150/  8/ 10 1023.6R        10/300/15
W. S. BARBARA CH           57 56  120/ 14/ 19 1023.3R         8/290/15
M. S. BARBARA CH                  110/ 16/ 19 1024.8
S. MONICA BASIN            58 58  130/  6/  8 1024.8R         5/270/13
S PEDRO CHANNEL               59                N/A           3/270/13
CMP PENDLETON NS              59                N/A           2/240/13
OCEANSIDE OFFSHR              60                N/A           2/250/11
TORREY PINES OTR              60                N/A           3/290/17
POINT LOMA SOUTH              60                N/A           3/280/17

$$




USA.gov is the U.S. government's official web portal to all federal, state and local government web resources and services.